User: anonymous
Location: Caltech
(34.1382°N, 118.1253°W)
Time: 14:05:44
(UTC-07:00)
Language:

Cosmos 1758 Rocket - Orbit

View from above orbital plane
View from above orbital plane
View from above satellite
View from above satellite

Ground track
Ground track

The orbit data is extracted from the following two-line orbital elements,

1 16792U 86046B   14112.51572603  .00000619  00000-0  73689-4 0  4445
2 16792 082.4853 205.6861 0026043 122.9835 312.1386 14.82530948504209
Epoch (UTC): 22 April 2014 12:22:38
Eccentricity: 0.0026043
inclination: 82.4853°
perigee height: 603 km
apogee height: 639 km
right ascension of ascending node: 205.6861°
argument of perigee: 122.9835°
revolutions per day: 14.82530948
mean anomaly at epoch: 312.1386°
orbit number at epoch: 50420

The dashed part of the orbit path shows where the satellite is in the earth's shadow,  

DLR